Showing default

LANDSAT 1 (ERTS 1), 6126

Orbit data source: Space-Track

LANDSAT 1 (ERTS 1), 6126 is a payload satellite owned by GSFC (US) in SSO that was launched on Sun, 23 Jul 1972 UTC via a DELTA 0900 launch vehicle from the Air Force Western Test Range (AFWTR). Payload-class satellites include a variety of spacecraft equipped with specific instruments for various scientific and technological missions. These include communications satellites like Starlink; space stations such as the ISS; scientific satellites like the Hubble; Earth observation satellites from companies like Planet Labs, Umbra, and HawkEye 360; GPS; miniature CubeSats for education and research; and military/defense satellites.

Loading next visibility...
Identifier
6126, 1972-058A
Orbit
SSO
Last TLE update
10 hours ago
Origin
Manufacturer
GE/MSVD
Mission
Non-operational Civil Imaging
Bus & Motor
NIMBUS, Unknown motor
Mass
891 kg wet, 891 kg dry
Launch date (UTC)
1972-07-23 (53 years ago)
Launch vehicle
DELTA 0900
Launch site
Air Force Western Test Range (AFWTR)
Object type
Payload
Rocket body
Debris
Shape & HBR
Cone + 2 Pan, 3.3 m
Radar Cross Section
2.170 m², Large (>1 m²)

Expand to show TLE details & history

TLE from 10 hours ago
0 LANDSAT 1 (ERTS 1)
1 06126U 72058A   25186.94894108 -.00000231  00000-0 -13057-3 0  9999
2 06126  99.3653 205.2916 0008781 116.7707 243.4354 13.97795109699583
Epoch: 2025-07-05T22:46Z
TLE epoch observation values (Epoch: 2025-07-05T22:46:28.509Z)
Latitude
-0.00005°
Longitude
-60.50683°
Altitude
907.166 km
Speed
7.397 km/s
True Right ascension
13h 41m 09s
True Declination
0° 00' 00"
Sunlit
Object was in daylight at epoch
Visualization orbit readout
Latitude
-66.23475°
Longitude
98.03226°
Altitude
930.804 km
Speed
7.383 km/s
Apparent Right ascension
06h 02m 35s
Apparent Declination
-69° 12' 42"
Sunlit
Object is in daylight
Visualization observer readout
Local Sidereal Time
20:30:35
Azimuth
158.243° S
Elevation
-54.815°
Doppler factor
1
Orbital elements
Apogee altitude
905.051 km
Perigee altitude
892.271 km
Semi-major axis
7,276.798 km
Eccentricity
0.00088
Inclination
99.3653°
RAAN
205.2916°
Arg. of periapsis
116.7707°
True anomaly
Unknown
Mean anomaly
243.4354°
Eccentric anomaly
Unknown
Mean motion
3.49649 °/min
Orbital period
102.96 mins
BSTAR
-0.00013057
Loading maneuver chart data...
Loading SW <> Apogee altitude chart data...

LANDSAT 1 (ERTS 1) Visibility forecast

Observer location: undefined°, undefined°

Span
Click to sort rows by Start time (UTC) header in descending order
Start Az.
Max El. time (UTC)
Max El. Az.
Max El.
End time (UTC)
End Az.
8 mins2025-07-06 13:07:44.567Z46.46° ENE2025-07-06 13:11:44.567Z98.055° ESE22.863°2025-07-06 13:15:44.567Z146.41° SSE
8 mins2025-07-06 14:49:44.567Z353.29° N2025-07-06 14:53:44.567Z280.295° WNW34.726°2025-07-06 14:57:44.567Z224.885° SW
9 mins2025-07-07 00:40:44.567Z138.944° SSE2025-07-07 00:44:44.567Z67.036° ENE38.236°2025-07-07 00:49:44.567Z356.97° N
7 mins2025-07-07 02:23:44.567Z229.594° WSW2025-07-07 02:26:44.567Z268.428° W20.003°2025-07-07 02:30:44.567Z313.971° NW
|